Overview Statistics Trail Chart Weather Telemetry Raw packets
 

This is the latest recevied weather packets stored in our database for station/object KN1OBI-13. If no packets are shown the sender has not sent any weather packets the latest 10 day(s).

<< 48 49 50 51 52 53 54 >>
Time Temp. Humidity Pressure Rain* Wind** Luminosity Snow
1787880390 20.56° C 84% 996.2 hPa 0 mm - - -
1787879795 20.56° C 83% 996.1 hPa 0 mm - - -
1787879190 20.56° C 83% 996.3 hPa 0 mm - - -
1787878590 20.56° C 82% 996.3 hPa 0 mm - - -
1787877990 20.56° C 82% 996.3 hPa 0 mm - - -
1787877390 21.11° C 81% 996.2 hPa 0 mm - - -
1787876790 21.11° C 81% 996.1 hPa 0 mm - - -
1787876190 21.11° C 81% 996.1 hPa 0 mm - - -
1787875591 21.67° C 81% 995.9 hPa 0 mm - - -
1787874990 21.67° C 80% 995.8 hPa 0 mm - - -
1787874390 21.67° C 79% 996.1 hPa 0 mm - - -
1787873790 22.22° C 78% 995.7 hPa 0 mm - - -
1787873190 22.22° C 77% 995.5 hPa 0 mm - - -
1787872590 22.78° C 76% 995.7 hPa 0 mm - - -
1787871990 22.78° C 75% 995.7 hPa 0 mm - - -
1787871390 23.33° C 75% 995.5 hPa 0 mm - - -
1787870790 23.33° C 72% 995.7 hPa 0 mm - - -
1787870190 23.89° C 71% 995.4 hPa 0 mm - - -
1787869590 23.89° C 70% 995.4 hPa 0 mm - - -
1787868990 24.44° C 68% 995.7 hPa 0 mm - - -
1787868390 25° C 66% 995.7 hPa 0 mm - - -
1787867790 25° C 67% 995.9 hPa 0 mm - - -
1787867190 25° C 67% 996.1 hPa 0 mm - - -
1787866590 24.44° C 66% 996 hPa 0 mm - - -
1787865990 25° C 66% 996.2 hPa 0 mm - - -

* Rain latest hour (hover to see other rain measurements)
** Current wind speed in m/s (hover to see current wind gust speed)